FW1189 Weather Reports


Display with metric or nautical units.
time (UTC)temp
F
wind
direction
speed
MPH
gust
MPH
rain 1hr
in
rain 24hr
in
rain mn
in
humidity
%
barometer
mb
20260505224504 39 335 1.0 4.0 0.00 0.41 0.00 99 1009.4
20260505224204 40 74 1.0 4.0 0.00 0.41 0.00 99 1009.5
20260505223904 40 91 2.0 4.0 0.00 0.41 0.00 99 1009.7
20260505223605 40 92 2.0 4.0 0.00 0.41 0.00 99 1009.6
20260505223325 40 96 2.0 4.0 0.00 0.41 0.00 99 1009.9
20260505223004 40 100 2.0 4.0 0.00 0.41 0.00 98 1009.8
20260505222703 40 103 1.0 4.0 0.00 0.41 0.00 98 1009.6
20260505222404 39 104 1.0 2.0 0.00 0.41 0.00 98 1009.8
20260505222105 40 90 0.0 2.0 0.00 0.41 0.00 98 1009.7
20260505221825 40 0 0.0 0.0 0.00 0.41 0.00 98 1009.6
20260505221505 40 0 0.0 2.0 0.00 0.41 0.00 98 1009.5
20260505221205 40 90 0.0 2.0 0.00 0.41 0.00 98 1009.5
20260505220904 40 90 0.0 2.0 0.00 0.41 0.00 98 1009.4
20260505220604 40 90 1.0 2.0 0.00 0.41 0.00 98 1009.6
20260505220304 40 90 0.0 2.0 0.00 0.41 0.00 98 1009.6
20260505220018 40 90 0.0 2.0 0.00 0.41 0.00 98 1009.8
20260505215704 40 90 1.0 2.0 0.00 0.41 0.41 98 1009.7
20260505215404 40 90 1.0 2.0 0.00 0.41 0.41 98 1009.8
20260505215104 40 93 1.0 2.0 0.00 0.41 0.41 98 1009.8
20260505214804 40 94 1.0 2.0 0.00 0.41 0.41 98 1009.6
20260505214526 40 97 0.0 2.0 0.00 0.41 0.41 98 1009.9
20260505214204 40 0 0.0 2.0 0.00 0.41 0.41 98 1010.1
20260505213904 40 0 0.0 2.0 0.00 0.41 0.41 98 1010.2
20260505213604 40 335 0.0 2.0 0.00 0.41 0.41 98 1010.0
20260505213304 40 332 0.0 2.0 0.00 0.41 0.41 98 1009.9
20260505213004 40 310 0.0 2.0 0.00 0.41 0.41 98 1009.9
20260505212704 40 304 0.0 2.0 0.00 0.41 0.41 98 1010.0
20260505212425 40 296 0.0 2.0 0.00 0.41 0.41 98 1010.1
20260505212104 40 315 0.0 2.0 0.00 0.41 0.41 98 1010.0
20260505211825 40 324 1.0 4.0 0.00 0.41 0.41 98 1010.2
20260505211505 40 325 1.0 4.0 0.00 0.41 0.41 97 1010.1
20260505211225 40 325 1.0 4.0 0.00 0.41 0.41 97 1010.1
20260505210904 40 326 1.0 4.0 0.00 0.41 0.41 97 1010.2
20260505210604 40 331 1.0 4.0 0.00 0.41 0.41 97 1010.2
20260505210325 40 312 0.0 2.0 0.00 0.41 0.41 97 1010.1
20260505210004 40 0 0.0 2.0 0.00 0.41 0.41 97 1010.1
20260505205705 40 0 0.0 2.0 0.00 0.41 0.41 97 1010.2
20260505205404 40 322 0.0 2.0 0.00 0.41 0.41 97 1010.2
20260505205104 40 326 0.0 2.0 0.00 0.41 0.41 97 1010.4
20260505204804 40 327 1.0 2.0 0.00 0.41 0.41 97 1010.2
20260505204526 40 329 1.0 2.0 0.00 0.41 0.41 97 1010.3
20260505204204 40 337 0.0 2.0 0.00 0.41 0.41 97 1010.1
20260505203904 40 0 0.0 0.0 0.00 0.41 0.41 97 1010.3
20260505203604 40 257 0.0 2.0 0.00 0.41 0.41 97 1010.2
20260505203304 40 257 0.0 2.0 0.00 0.41 0.41 97 1010.2
20260505203005 40 257 0.0 2.0 0.00 0.41 0.41 97 1010.2
20260505202704 40 232 0.0 2.0 0.00 0.41 0.41 97 1010.1
20260505202404 40 337 0.0 2.0 0.00 0.41 0.41 97 1010.1
20260505202104 40 46 0.0 4.0 0.00 0.41 0.41 97 1010.1
20260505201804 40 50 1.0 4.0 0.00 0.41 0.41 96 1010.1
20260505201525 40 38 1.0 4.0 0.00 0.41 0.41 96 1010.2
20260505201204 40 31 1.0 4.0 0.00 0.41 0.41 96 1010.2
20260505200904 40 13 1.0 4.0 0.00 0.41 0.41 96 1010.1
20260505200605 40 25 0.0 4.0 0.00 0.41 0.41 97 1010.0
20260505200326 40 45 0.0 2.0 0.00 0.41 0.41 97 1009.9
20260505200004 40 31 0.0 2.0 0.00 0.41 0.41 97 1010.1
20260505195704 40 345 0.0 2.0 0.00 0.41 0.41 97 1010.1
20260505195425 40 327 0.0 2.0 0.00 0.41 0.41 97 1010.2
20260505195103 40 321 1.0 4.0 0.00 0.41 0.41 97 1010.2
20260505194804 40 323 1.0 4.0 0.00 0.41 0.41 97 1010.2
20260505194505 40 322 1.0 4.0 0.00 0.41 0.41 97 1010.2
20260505194204 40 322 1.0 4.0 0.00 0.41 0.41 97 1010.1
20260505193905 40 318 2.0 4.0 0.00 0.41 0.41 97 1010.1
20260505193625 40 318 2.0 4.0 0.00 0.41 0.41 96 1010.0
20260505193304 40 327 2.0 4.0 0.00 0.41 0.41 96 1010.0
20260505193004 40 334 2.0 4.0 0.00 0.41 0.41 96 1009.9
20260505192704 40 342 1.0 4.0 0.00 0.41 0.41 96 1010.0
20260505192404 40 330 1.0 4.0 0.00 0.41 0.41 95 1009.9
20260505192104 41 282 1.0 4.0 0.00 0.41 0.41 94 1010.0
20260505191804 41 81 3.0 11.0 0.00 0.41 0.41 93 1009.9
20260505191504 41 105 4.0 11.0 0.00 0.41 0.41 93 1009.9
20260505191225 41 101 4.0 11.0 0.00 0.41 0.41 91 1010.0
20260505190903 41 103 4.0 11.0 0.00 0.41 0.41 90 1010.0
20260505190605 41 98 4.0 11.0 0.00 0.41 0.41 91 1010.0
20260505190304 41 86 5.0 14.0 0.00 0.41 0.41 92 1009.8
20260505190004 41 89 6.0 14.0 0.00 0.41 0.41 92 1009.9
20260505185704 41 92 7.0 14.0 0.00 0.41 0.41 92 1009.8
20260505185425 41 95 5.0 14.0 0.00 0.41 0.41 92 1009.8
20260505185125 41 97 4.0 9.0 0.00 0.41 0.41 92 1009.9
20260505184804 41 95 4.0 11.0 0.00 0.41 0.41 91 1009.7
20260505184504 41 97 4.0 11.0 0.00 0.43 0.41 91 1009.8
20260505184204 41 101 4.0 11.0 0.00 0.43 0.41 90 1009.7
20260505183904 41 103 3.0 14.0 0.00 0.43 0.41 90 1009.7
20260505183604 42 94 5.0 14.0 0.00 0.43 0.41 90 1009.7
20260505183304 42 88 6.0 14.0 0.00 0.43 0.41 89 1009.8
20260505183004 42 86 7.0 14.0 0.00 0.43 0.41 88 1009.6
20260505182704 42 85 7.0 14.0 0.00 0.43 0.41 89 1009.7
20260505182405 42 87 8.0 18.0 0.00 0.43 0.41 89 1009.9
20260505182104 42 89 9.0 18.0 0.00 0.43 0.41 88 1009.6
20260505181804 42 85 9.0 18.0 0.00 0.43 0.41 89 1009.5
20260505181525 42 85 8.0 15.0 0.00 0.43 0.41 90 1009.7
20260505181225 41 86 9.0 20.0 0.00 0.43 0.41 90 1009.5
20260505180904 41 90 9.0 20.0 0.00 0.43 0.41 91 1009.6
20260505180604 41 89 10.0 20.0 0.00 0.43 0.41 92 1009.6
20260505180304 41 83 9.0 15.0 0.00 0.43 0.41 92 1009.5
20260505180025 41 83 9.0 15.0 0.00 0.43 0.41 92 1009.4
20260505175724 41 86 8.0 14.0 0.00 0.43 0.41 92 1009.5
20260505175404 41 86 9.0 15.0 0.00 0.43 0.41 91 1009.3
20260505175105 42 88 9.0 22.0 0.00 0.43 0.41 92 1009.6
20260505174825 42 88 11.0 22.0 0.00 0.43 0.41 91 1009.8
20260505174504 42 84 12.0 22.0 0.00 0.43 0.41 90 1009.6
20260505174226 42 87 12.0 22.0 0.00 0.43 0.41 90 1009.5
20260505173904 42 83 11.0 22.0 0.00 0.43 0.41 89 1009.6
20260505173604 42 87 10.0 18.0 0.00 0.43 0.41 90 1009.5
20260505173304 42 81 9.0 18.0 0.00 0.43 0.41 90 1009.7
20260505173004 41 79 8.0 18.0 0.00 0.43 0.41 91 1009.7
20260505172704 41 81 10.0 21.0 0.00 0.43 0.41 92 1009.5
20260505172405 41 80 9.0 21.0 0.00 0.43 0.41 93 1009.6
20260505172103 41 82 10.0 21.0 0.00 0.43 0.41 93 1009.5
20260505171804 41 82 9.0 21.0 0.00 0.43 0.41 92 1009.5
20260505171504 41 85 8.0 16.0 0.00 0.43 0.41 93 1009.8
20260505171225 42 86 7.0 15.0 0.00 0.43 0.41 93 1009.7
20260505170904 42 86 6.0 13.0 0.00 0.43 0.41 91 1009.7
20260505170605 42 84 5.0 13.0 0.00 0.43 0.41 91 1009.8
20260505170305 43 90 5.0 13.0 0.00 0.43 0.41 89 1009.9
20260505170025 43 91 5.0 14.0 0.00 0.43 0.41 89 1009.8
20260505165703 43 86 6.0 15.0 0.00 0.43 0.41 88 1009.9
20260505165425 43 85 5.0 15.0 0.00 0.43 0.41 88 1010.0
20260505165104 43 81 5.0 15.0 0.00 0.43 0.41 89 1009.8
20260505164804 43 78 2.0 14.0 0.00 0.43 0.41 90 1009.8
20260505164505 44 73 2.0 14.0 0.00 0.43 0.41 90 1009.8
20260505164204 44 92 1.0 4.0 0.00 0.43 0.41 92 1009.8
20260505163904 44 112 1.0 4.0 0.00 0.43 0.41 92 1009.9
20260505163604 44 133 1.0 4.0 0.00 0.43 0.41 91 1009.7
20260505163303 44 155 1.0 4.0 0.00 0.43 0.41 90 1009.5
20260505163004 44 147 1.0 4.0 0.00 0.43 0.41 90 1009.8
20260505162703 45 131 1.0 4.0 0.00 0.43 0.41 89 1009.9
20260505162404 44 110 2.0 7.0 0.00 0.43 0.41 88 1009.8
20260505162104 45 95 3.0 7.0 0.00 0.43 0.41 88 1009.7
20260505161803 45 94 4.0 11.0 0.00 0.43 0.41 84 1009.8
20260505161505 45 93 5.0 11.0 0.00 0.43 0.41 84 1009.7
20260505161225 45 91 7.0 16.0 0.00 0.43 0.41 82 1009.8
20260505160905 45 91 8.0 16.0 0.00 0.43 0.41 85 1009.9
20260505160603 45 90 8.0 16.0 0.00 0.43 0.41 83 1009.9
20260505160325 44 93 6.0 16.0 0.00 0.43 0.41 87 1009.9
20260505153304 45 87 3.0 16.0 0.00 0.43 0.41 86 1010.0
20260505153004 46 106 1.0 6.0 0.00 0.43 0.41 87 1009.8
20260505152703 46 125 1.0 4.0 0.00 0.43 0.41 88 1009.9
20260505152403 46 139 1.0 6.0 0.00 0.43 0.41 88 1009.8
20260505152105 46 121 2.0 6.0 0.00 0.43 0.41 86 1009.9
20260505151825 46 125 3.0 11.0 0.00 0.43 0.41 83 1009.7
20260505151504 46 113 4.0 11.0 0.00 0.43 0.41 83 1009.8
20260505151204 45 108 6.0 18.0 0.00 0.43 0.41 83 1009.7
20260505150903 44 102 8.0 18.0 0.00 0.43 0.41 82 1009.8
20260505150604 44 99 8.0 18.0 0.00 0.43 0.41 82 1009.8
20260505150304 44 97 6.0 18.0 0.00 0.43 0.41 83 1009.7
20260505140604 44 98 6.0 21.0 0.00 0.43 0.41 82 1010.0
20260505140303 44 102 6.0 21.0 0.00 0.43 0.41 82 1009.9
20260505130304 45 166 1.0 4.0 0.00 0.43 0.41 92 1010.2
20260505124804 45 139 2.0 6.0 0.00 0.43 0.41 92 1010.4
20260505124525 44 145 1.0 4.0 0.00 0.43 0.41 94 1010.6
20260505124225 44 129 1.0 4.0 0.00 0.43 0.41 94 1010.2
20260505123904 44 149 1.0 4.0 0.00 0.43 0.41 93 1010.4
20260505123603 44 183 1.0 4.0 0.00 0.43 0.41 93 1010.3
20260505123304 44 208 1.0 4.0 0.00 0.43 0.41 93 1010.4
20260505123025 45 204 1.0 4.0 0.00 0.43 0.41 93 1010.3
20260505122704 46 146 1.0 4.0 0.00 0.43 0.41 93 1010.4
20260505122403 46 130 0.0 4.0 0.00 0.43 0.41 92 1010.4
20260505122125 46 143 0.0 4.0 0.00 0.43 0.41 90 1010.3
20260505121804 46 198 0.0 2.0 0.00 0.43 0.41 90 1010.5
20260505121504 45 304 0.0 4.0 0.00 0.43 0.41 91 1010.3
20260505121203 44 325 0.0 4.0 0.00 0.43 0.41 92 1010.5
20260505120904 43 328 1.0 4.0 0.00 0.43 0.41 92 1010.5
20260505120604 44 325 1.0 4.0 0.00 0.43 0.41 91 1010.6
20260505120325 44 317 1.0 4.0 0.00 0.43 0.41 91 1010.5
20260505120004 44 296 1.0 2.0 0.00 0.43 0.41 92 1010.5
20260505115725 45 185 1.0 2.0 0.00 0.43 0.41 92 1010.3
20260505115404 44 155 0.0 2.0 0.00 0.43 0.41 90 1010.5
20260505115104 44 188 1.0 2.0 0.00 0.43 0.41 91 1010.5
20260505114804 44 253 1.0 4.0 0.00 0.43 0.41 93 1010.3
20260505114504 43 257 0.0 4.0 0.00 0.43 0.41 92 1010.3
20260505114203 43 231 1.0 4.0 0.00 0.43 0.41 94 1010.5
20260505113903 43 222 1.0 4.0 0.00 0.43 0.41 94 1010.5
20260505113604 43 230 1.0 4.0 0.00 0.43 0.41 93 1010.4
20260505113304 43 203 1.0 4.0 0.00 0.43 0.41 94 1010.7
20260505113003 43 205 1.0 4.0 0.00 0.43 0.41 94 1010.6
20260505112703 42 192 1.0 4.0 0.00 0.43 0.41 94 1010.6
20260505112403 43 167 2.0 6.0 0.00 0.43 0.41 94 1010.6
20260505112103 42 141 1.0 6.0 0.00 0.43 0.41 95 1010.5
20260505111803 42 116 1.0 6.0 0.00 0.43 0.41 95 1010.5
20260505111524 42 99 1.0 6.0 0.00 0.43 0.41 95 1010.4
20260505111204 42 115 1.0 2.0 0.00 0.43 0.41 96 1010.4
20260505110904 42 108 0.0 2.0 0.00 0.43 0.41 96 1010.7
20260505110625 42 331 1.0 2.0 0.00 0.43 0.41 97 1010.5
20260505110304 41 321 1.0 2.0 0.00 0.43 0.41 97 1010.7
20260505102124 40 263 0.0 2.0 0.00 0.43 0.41 95 1010.7
20260505101803 40 256 1.0 4.0 0.00 0.43 0.41 94 1010.8
20260505101503 41 259 1.0 4.0 0.00 0.43 0.41 94 1010.8
20260505101203 41 261 1.0 4.0 0.00 0.43 0.41 95 1010.6
20260505100925 42 279 1.0 4.0 0.00 0.43 0.41 95 1010.7
20260505100603 41 299 0.0 2.0 0.00 0.43 0.41 95 1010.6
20260505100325 40 306 0.0 2.0 0.00 0.43 0.41 95 1010.7
20260505100003 40 286 0.0 2.0 0.00 0.43 0.41 95 1010.5
20260505095703 41 258 0.0 2.0 0.00 0.43 0.41 96 1011.0
20260505095425 41 265 0.0 2.0 0.00 0.43 0.41 96 1010.6
20260505095103 40 267 0.0 2.0 0.00 0.43 0.41 95 1010.6
20260505094804 40 273 0.0 2.0 0.00 0.43 0.41 95 1010.9
20260505094504 40 272 0.0 2.0 0.00 0.43 0.41 95 1010.8
20260505094203 40 275 0.0 2.0 0.00 0.43 0.41 95 1010.7
20260505093903 40 270 0.0 2.0 0.00 0.43 0.41 95 1010.7
20260505093603 40 202 0.0 2.0 0.00 0.43 0.41 95 1010.7
20260505093304 40 186 0.0 2.0 0.00 0.43 0.41 95 1010.7
20260505093004 40 197 1.0 2.0 0.00 0.43 0.41 95 1010.8
20260505092703 40 206 1.0 2.0 0.00 0.43 0.41 94 1010.7
20260505092404 40 256 1.0 2.0 0.00 0.43 0.41 94 1011.0
20260505092104 40 303 1.0 4.0 0.00 0.43 0.41 94 1010.9
20260505091803 39 308 1.0 4.0 0.00 0.43 0.41 94 1010.9
20260505091504 40 326 1.0 4.0 0.00 0.43 0.41 94 1010.9
20260505091203 40 83 1.0 7.0 0.00 0.43 0.41 94 1010.8
20260505090904 40 89 2.0 8.0 0.00 0.43 0.41 93 1010.7
20260505090605 40 80 2.0 8.0 0.00 0.43 0.41 93 1010.6
20260505090303 40 68 2.0 8.0 0.00 0.43 0.41 93 1010.7
20260505090004 40 355 1.0 4.0 0.00 0.43 0.41 92 1010.8
20260505085725 40 319 1.0 4.0 0.00 0.43 0.41 92 1010.7
20260505085403 40 343 1.0 4.0 0.00 0.43 0.41 92 1010.8
20260505085103 40 59 1.0 4.0 0.00 0.43 0.41 91 1010.7
20260505084803 42 96 1.0 2.0 0.00 0.43 0.41 92 1010.7
20260505084524 42 104 1.0 4.0 0.00 0.43 0.41 92 1010.7
20260505084203 42 160 1.0 4.0 0.00 0.43 0.41 91 1010.8
20260505083903 43 203 1.0 4.0 0.00 0.43 0.41 90 1010.7
20260505083604 44 231 1.0 4.0 0.00 0.43 0.41 91 1010.6
20260505083304 44 272 1.0 4.0 0.00 0.43 0.41 93 1010.6
20260505083005 43 293 1.0 4.0 0.00 0.43 0.41 94 1010.6
20260505082704 42 314 2.0 4.0 0.00 0.43 0.41 95 1010.8
20260505082425 41 325 2.0 4.0 0.00 0.43 0.41 94 1010.6
20260505082125 40 327 2.0 4.0 0.00 0.43 0.41 95 1010.3
20260505081824 39 329 2.0 4.0 0.00 0.43 0.41 97 1010.6
20260505081524 39 330 2.0 4.0 0.00 0.43 0.41 97 1010.5
20260505081204 39 336 2.0 4.0 0.00 0.43 0.41 97 1010.5
20260505080904 38 338 2.0 4.0 0.00 0.43 0.41 97 1010.5
20260505080603 38 341 1.0 4.0 0.00 0.43 0.41 97 1010.6
20260505080303 38 341 1.0 4.0 0.00 0.43 0.41 97 1010.6
20260505080025 38 344 1.0 4.0 0.00 0.43 0.41 97 1010.5
20260505075725 38 346 1.0 4.0 0.00 0.43 0.41 97 1010.6
20260505075404 37 338 1.0 4.0 0.00 0.43 0.41 98 1010.6
20260505075103 37 333 1.0 4.0 0.00 0.43 0.41 97 1010.6
20260505074825 37 333 2.0 4.0 0.00 0.43 0.41 97 1010.6
20260505074503 37 336 1.0 4.0 0.01 0.43 0.41 97 1010.6
20260505074203 37 333 1.0 4.0 0.01 0.43 0.41 97 1010.9
20260505073903 37 332 1.0 4.0 0.01 0.43 0.41 97 1010.7
20260505073603 37 329 1.0 4.0 0.01 0.43 0.41 97 1011.0
20260505073303 36 327 1.0 4.0 0.01 0.43 0.41 97 1010.8
20260505073025 36 329 1.0 2.0 0.01 0.43 0.41 97 1010.7
20260505072703 36 332 0.0 2.0 0.01 0.43 0.41 97 1010.8
20260505072403 36 330 0.0 2.0 0.01 0.43 0.41 97 1010.8
20260505072103 36 331 0.0 2.0 0.01 0.43 0.41 97 1010.6
20260505071803 36 334 0.0 2.0 0.01 0.43 0.41 97 1010.8
20260505071504 36 340 0.0 2.0 0.01 0.43 0.41 97 1010.7
20260505071224 36 338 0.0 2.0 0.01 0.43 0.41 97 1010.8
20260505070903 36 333 0.0 2.0 0.01 0.43 0.41 97 1010.8
20260505070603 36 277 0.0 2.0 0.02 0.43 0.41 97 1010.8
20260505070303 37 227 0.0 2.0 0.02 0.43 0.41 97 1011.0
20260505070025 37 217 0.0 2.0 0.04 0.43 0.41 97 1010.8
20260505065703 37 205 0.0 2.0 0.05 0.43 0.41 97 1010.9
20260505065403 37 163 0.0 2.0 0.05 0.43 0.41 97 1010.8
20260505065103 37 0 0.0 0.0 0.07 0.43 0.41 97 1011.0
20260505064804 37 0 0.0 0.0 0.08 0.43 0.41 97 1010.9
20260505064524 37 90 0.0 2.0 0.08 0.41 0.40 97 1010.6
20260505064204 37 94 1.0 4.0 0.09 0.41 0.40 97 1010.9
20260505063903 36 96 1.0 4.0 0.11 0.41 0.40 97 1010.8
20260505063603 37 100 1.0 4.0 0.12 0.41 0.40 96 1010.9
20260505063303 37 94 1.0 2.0 0.13 0.41 0.40 96 1010.9
20260505063003 36 94 0.0 2.0 0.15 0.41 0.40 96 1011.0
20260505062704 36 83 0.0 2.0 0.17 0.41 0.40 96 1011.0
20260505062424 36 67 0.0 2.0 0.18 0.41 0.40 96 1011.0
20260505062124 36 0 0.0 0.0 0.20 0.41 0.40 96 1010.8
20260505061803 36 337 0.0 2.0 0.21 0.41 0.40 96 1010.9
20260505061503 36 337 0.0 2.0 0.22 0.41 0.40 96 1010.9
20260505061203 36 337 0.0 2.0 0.24 0.41 0.40 96 1010.9
20260505060903 36 337 0.0 2.0 0.24 0.41 0.40 96 1011.0
20260505060624 36 339 0.0 2.0 0.22 0.40 0.39 95 1010.9
20260505060303 36 341 0.0 4.0 0.22 0.40 0.39 95 1011.0
20260505060003 36 342 0.0 4.0 0.22 0.39 0.38 95 1011.0
20260505055703 36 342 0.0 4.0 0.22 0.38 0.37 95 1011.2
20260505055403 36 340 0.0 4.0 0.22 0.37 0.35 95 1011.0
20260505055103 36 340 1.0 4.0 0.21 0.35 0.34 95 1011.2
20260505054804 36 339 2.0 4.0 0.21 0.34 0.33 95 1011.2
20260505054503 36 341 2.0 6.0 0.20 0.33 0.32 95 1011.1
20260505054204 36 340 2.0 6.0 0.19 0.32 0.31 95 1011.0
20260505053904 36 340 1.0 6.0 0.19 0.31 0.30 95 1011.0
20260505053603 36 340 1.0 4.0 0.18 0.30 0.28 95 1011.0
20260505053303 36 344 1.0 4.0 0.15 0.27 0.26 94 1011.2
20260505053003 36 348 1.0 4.0 0.14 0.26 0.25 95 1011.0
20260505052703 36 349 1.0 4.0 0.13 0.25 0.24 95 1010.9
20260505052403 36 347 1.0 4.0 0.13 0.24 0.22 95 1011.1
20260505052102 37 344 1.0 4.0 0.11 0.21 0.20 94 1011.0
20260505051825 37 344 1.0 4.0 0.11 0.20 0.19 94 1011.2
20260505051504 37 342 2.0 4.0 0.11 0.19 0.18 94 1011.2
20260505051203 37 338 2.0 4.0 0.09 0.18 0.17 93 1011.1
20260505050903 37 334 1.0 4.0 0.11 0.18 0.17 93 1011.2
20260505050603 37 332 2.0 4.0 0.11 0.18 0.17 93 1011.1
20260505050302 37 340 2.0 4.0 0.11 0.17 0.15 93 1011.0
20260505041503 37 346 3.0 7.0 0.07 0.08 0.07 92 1011.3
20260505041225 37 341 3.0 7.0 0.07 0.08 0.07 92 1011.2
20260505040903 37 338 3.0 7.0 0.06 0.07 0.06 92 1011.2
20260505040603 37 343 3.0 7.0 0.06 0.07 0.06 92 1011.4
20260505040325 37 344 3.0 6.0 0.05 0.06 0.05 92 1011.2
20260505040004 37 345 2.0 6.0 0.05 0.06 0.05 92 1011.2
20260505035703 37 339 2.0 6.0 0.04 0.05 0.04 93 1011.4
20260505035424 37 340 2.0 4.0 0.04 0.05 0.04 93 1011.4
20260505035102 37 347 2.0 4.0 0.04 0.05 0.04 92 1011.5
20260505034803 37 349 1.0 4.0 0.04 0.05 0.04 92 1011.3
20260505034503 37 345 1.0 4.0 0.04 0.05 0.04 92 1011.3
20260505034203 37 337 1.0 2.0 0.04 0.05 0.04 92 1011.3
20260505033903 37 337 1.0 2.0 0.02 0.04 0.02 91 1011.4
20260505033603 37 337 1.0 2.0 0.02 0.04 0.02 90 1011.4
20260505033303 37 337 0.0 2.0 0.01 0.02 0.01 89 1011.4
20260505033003 37 337 0.0 2.0 0.01 0.02 0.01 89 1011.2
20260505032705 37 0 0.0 2.0 0.01 0.02 0.01 89 1011.4
20260505032403 37 0 0.0 2.0 0.00 0.01 0.00 90 1011.2
20260505032103 37 0 0.0 2.0 0.00 0.01 0.00 90 1011.3
20260505031803 37 67 0.0 2.0 0.00 0.01 0.00 89 1011.3
20260505031503 37 67 0.0 2.0 0.00 0.01 0.00 89 1011.4
20260505031224 37 67 0.0 2.0 0.00 0.01 0.00 89 1011.1
20260505030903 37 67 0.0 2.0 0.00 0.01 0.00 89 1011.2
20260505030603 37 67 0.0 2.0 0.00 0.01 0.00 89 1011.4
20260505030303 37 67 0.0 2.0 0.00 0.01 0.00 89 1011.4
20260505030003 37 0 0.0 2.0 0.00 0.01 0.00 89 1011.4
20260505025703 37 0 0.0 2.0 0.00 0.01 0.00 88 1011.5
20260505025403 37 87 0.0 2.0 0.00 0.01 0.00 88 1011.3
20260505025103 37 88 1.0 2.0 0.00 0.01 0.00 88 1011.4
20260505024803 37 90 1.0 2.0 0.00 0.01 0.00 88 1011.6
20260505024503 37 86 1.0 4.0 0.00 0.01 0.00 88 1011.6
20260505024202 37 87 2.0 6.0 0.00 0.01 0.00 88 1011.7
20260505023903 37 90 3.0 6.0 0.00 0.01 0.00 88 1011.6
20260505023603 37 95 3.0 6.0 0.00 0.01 0.00 88 1011.6
20260505023303 38 98 2.0 6.0 0.00 0.01 0.00 88 1011.8
20260505023003 38 110 1.0 4.0 0.00 0.01 0.00 87 1011.9
20260505022702 38 0 0.0 2.0 0.00 0.01 0.00 86 1011.9
20260505022403 38 0 0.0 0.0 0.00 0.01 0.00 85 1011.7
20260505022102 38 0 0.0 0.0 0.00 0.01 0.00 84 1011.9
20260505021803 38 0 0.0 0.0 0.00 0.01 0.00 84 1012.0
20260505021524 38 315 0.0 2.0 0.00 0.01 0.00 84 1011.9
20260505021203 38 315 0.0 2.0 0.00 0.01 0.00 83 1012.2
20260505020903 38 315 0.0 2.0 0.00 0.01 0.00 84 1012.1
20260505020603 38 315 0.0 2.0 0.00 0.01 0.00 84 1012.1
20260505020304 38 0 0.0 2.0 0.00 0.01 0.00 85 1012.4
20260505020003 38 0 0.0 2.0 0.00 0.01 0.00 83 1012.2
20260505015703 39 0 0.0 2.0 0.00 0.01 0.00 82 1012.3
20260505015403 39 0 0.0 2.0 0.00 0.01 0.00 82 1012.3
20260505015103 39 337 0.0 2.0 0.00 0.01 0.00 81 1012.4
20260505014803 39 337 0.0 2.0 0.00 0.01 0.00 81 1012.5
20260505014524 39 331 0.0 2.0 0.00 0.01 0.00 81 1012.8
20260505014204 39 320 0.0 2.0 0.00 0.01 0.00 80 1012.5
20260505013902 39 0 0.0 2.0 0.00 0.01 0.00 82 1012.5
20260505013603 39 326 0.0 2.0 0.00 0.01 0.00 81 1012.5
20260505013303 39 329 0.0 2.0 0.00 0.01 0.00 80 1012.8
20260505013024 39 332 0.0 2.0 0.00 0.01 0.00 80 1012.6
20260505012703 39 355 0.0 2.0 0.00 0.01 0.00 80 1012.5
20260505012424 39 64 0.0 4.0 0.00 0.01 0.00 79 1012.7
20260505012102 39 77 1.0 4.0 0.00 0.01 0.00 77 1012.7
20260505011803 39 72 1.0 4.0 0.00 0.01 0.00 77 1012.7
20260505011504 39 68 0.0 4.0 0.00 0.01 0.00 77 1012.8
20260505011224 39 68 0.0 4.0 0.00 0.01 0.00 76 1012.8
20260505010903 39 0 0.0 2.0 0.00 0.01 0.00 78 1012.9
20260505010602 39 75 0.0 2.0 0.00 0.01 0.00 78 1012.8
20260505010302 39 106 0.0 4.0 0.00 0.01 0.00 77 1013.1
20260505010003 40 94 1.0 4.0 0.00 0.01 0.00 75 1013.2
20260505005702 40 96 2.0 4.0 0.00 0.01 0.00 74 1013.1
20260505005403 40 96 2.0 4.0 0.00 0.01 0.00 74 1013.2
20260505005103 39 94 2.0 4.0 0.00 0.01 0.00 74 1013.0
20260505004802 39 97 2.0 4.0 0.00 0.01 0.00 75 1013.3
20260505004524 39 91 2.0 4.0 0.00 0.01 0.00 78 1013.2
20260505004203 39 90 1.0 4.0 0.00 0.01 0.00 78 1013.3
20260505003903 39 92 1.0 4.0 0.00 0.01 0.00 78 1013.2
20260505003624 39 82 0.0 4.0 0.00 0.01 0.00 78 1013.4
20260505003323 39 80 0.0 4.0 0.00 0.01 0.00 78 1013.5
20260505003003 39 83 1.0 4.0 0.00 0.01 0.00 78 1013.4
20260505002703 39 89 1.0 4.0 0.00 0.01 0.00 81 1013.5
20260505002424 39 94 1.0 4.0 0.00 0.01 0.00 81 1013.3
20260505002103 39 98 1.0 4.0 0.00 0.01 0.00 81 1013.6
20260505001803 39 0 0.0 0.0 0.00 0.01 0.00 80 1013.5
20260505001502 39 0 0.0 0.0 0.00 0.01 0.00 80 1013.5
20260505001203 39 0 0.0 0.0 0.00 0.01 0.00 79 1013.5
20260505000902 39 0 0.0 2.0 0.00 0.01 0.00 79 1013.5
20260505000603 39 90 0.0 2.0 0.00 0.01 0.00 77 1013.5
20260505000303 39 90 1.0 6.0 0.00 0.01 0.00 77 1013.8
20260505000003 39 94 2.0 6.0 0.00 0.01 0.00 77 1013.8
20260504235702 39 97 3.0 6.0 0.00 0.01 0.00 78 1013.8
20260504235402 39 100 3.0 6.0 0.00 0.01 0.00 80 1013.7
20260504235124 39 104 2.0 4.0 0.00 0.01 0.00 81 1014.1
20260504234824 39 105 1.0 4.0 0.00 0.01 0.00 81 1014.1
20260504234503 39 100 1.0 4.0 0.00 0.01 0.00 81 1014.0
20260504234203 40 100 2.0 6.0 0.00 0.01 0.00 81 1014.1
20260504233903 40 99 3.0 6.0 0.00 0.01 0.00 80 1014.1
20260504233604 40 96 3.0 6.0 0.00 0.01 0.00 79 1014.4
20260504233302 41 94 3.0 6.0 0.00 0.01 0.00 75 1014.2
20260504233003 41 86 3.0 6.0 0.00 0.01 0.00 72 1014.4
20260504232703 41 79 3.0 4.0 0.00 0.01 0.00 71 1014.0
20260504232402 41 71 2.0 4.0 0.00 0.01 0.00 71 1014.3
20260504232102 41 62 1.0 4.0 0.00 0.01 0.00 70 1014.3
20260504231803 40 55 0.0 4.0 0.00 0.01 0.00 74 1014.5
20260504231503 40 54 0.0 4.0 0.00 0.01 0.00 76 1014.5
20260504231203 40 40 1.0 6.0 0.00 0.01 0.00 76 1014.6
20260504230902 41 16 1.0 7.0 0.00 0.01 0.00 75 1014.6
20260504230602 41 352 1.0 7.0 0.00 0.01 0.00 76 1014.6
20260504230303 41 343 1.0 7.0 0.00 0.01 0.00 75 1014.7
20260504230003 41 328 1.0 7.0 0.00 0.01 0.00 74 1014.8
20260504225703 41 323 0.0 2.0 0.00 0.01 0.00 77 1014.8
20260504225403 41 307 0.0 2.0 0.00 0.01 0.00 76 1014.8
20260504225103 41 294 0.0 2.0 0.00 0.01 0.00 75 1014.9
20260504224803 41 292 1.0 4.0 0.00 0.01 0.00 75 1014.8